TimeMST,TemperatureF,Dew PointF,Humidity,Sea Level PressureIn,VisibilityMPH,Wind Direction,Wind SpeedMPH,Gust SpeedMPH,PrecipitationIn,Events,Conditions,WindDirDegrees,DateUTC
12:53 AM,37.9,34.0,86,30.06,10.0,NNW,9.2,-,0.00,Rain,Light Rain,340,2013-01-10 07:53:00
1:53 AM,37.9,35.1,89,30.02,10.0,North,10.4,-,0.00,Rain,Light Rain,10,2013-01-10 08:53:00
2:30 AM,37.4,35.6,93,30.05,10.0,North,6.9,-,N/A,,Overcast,10,2013-01-10 09:30:00
2:53 AM,37.9,35.1,89,30.00,9.0,North,5.8,-,N/A,,Overcast,360,2013-01-10 09:53:00
3:53 AM,37.9,35.1,89,29.95,5.0,North,5.8,-,N/A,,Overcast,350,2013-01-10 10:53:00
4:14 AM,37.4,35.6,93,29.98,3.0,NW,4.6,-,N/A,,Overcast,320,2013-01-10 11:14:00
4:53 AM,37.9,36.0,93,29.97,2.5,Calm,Calm,-,N/A,,Overcast,0,2013-01-10 11:53:00
5:50 AM,37.4,35.6,93,29.98,1.8,East,4.6,-,N/A,,Overcast,90,2013-01-10 12:50:00
5:53 AM,37.9,36.0,93,29.96,1.8,East,3.5,-,N/A,,Overcast,100,2013-01-10 12:53:00
6:18 AM,37.4,35.6,93,29.98,2.0,ESE,3.5,-,N/A,,Overcast,110,2013-01-10 13:18:00
6:53 AM,37.0,36.0,96,29.96,2.5,SSE,3.5,-,N/A,,Overcast,150,2013-01-10 13:53:00
7:53 AM,37.0,36.0,96,29.97,1.2,SE,3.5,-,N/A,,Overcast,140,2013-01-10 14:53:00
8:29 AM,37.4,35.6,93,29.96,3.0,SW,3.5,-,N/A,,Overcast,220,2013-01-10 15:29:00
8:53 AM,37.9,36.0,93,29.94,10.0,WSW,8.1,-,N/A,,Overcast,240,2013-01-10 15:53:00
9:53 AM,39.9,36.0,86,29.93,10.0,WSW,10.4,-,N/A,,Overcast,250,2013-01-10 16:53:00
10:53 AM,42.1,37.9,85,29.88,10.0,West,9.2,-,N/A,,Overcast,260,2013-01-10 17:53:00
11:53 AM,46.9,39.9,77,29.81,10.0,West,11.5,-,N/A,,Scattered Clouds,260,2013-01-10 18:53:00
12:53 PM,52.0,41.0,66,29.77,10.0,WSW,15.0,-,N/A,,Partly Cloudy,240,2013-01-10 19:53:00
1:53 PM,55.0,36.0,49,29.74,10.0,SW,15.0,-,N/A,,Clear,220,2013-01-10 20:53:00
2:53 PM,54.0,39.0,57,29.71,10.0,SSW,15.0,-,N/A,,Clear,210,2013-01-10 21:53:00
3:53 PM,52.0,37.9,59,29.69,10.0,SSW,12.7,-,N/A,,Clear,200,2013-01-10 22:53:00
4:53 PM,51.1,37.9,61,29.68,10.0,SSW,15.0,-,N/A,,Clear,210,2013-01-10 23:53:00
5:53 PM,48.9,28.9,46,29.70,10.0,SSW,10.4,-,N/A,,Clear,200,2013-01-11 00:53:00
6:53 PM,46.9,36.0,66,29.70,10.0,SW,9.2,-,N/A,,Clear,220,2013-01-11 01:53:00
7:53 PM,46.0,35.1,66,29.71,10.0,SW,15.0,-,N/A,,Clear,230,2013-01-11 02:53:00
8:53 PM,45.0,33.1,63,29.74,10.0,SW,15.0,-,N/A,,Clear,220,2013-01-11 03:53:00
9:53 PM,44.1,33.1,65,29.74,10.0,SSW,12.7,-,N/A,,Clear,210,2013-01-11 04:53:00
10:53 PM,44.1,30.9,60,29.71,10.0,SW,10.4,-,N/A,,Clear,220,2013-01-11 05:53:00
11:53 PM,44.1,30.0,58,29.68,10.0,SSW,9.2,-,N/A,,Clear,200,2013-01-11 06:53:00